Virgil East

*Note: All times are displayed in the local standard time of the station location.
**Rain - Equipment is designed to accurately record liquid precipitation; under conditions when precipitation is not in liquid form, the data displayed may not properly reflect rainfall values.

Date Max Temp
(°C)
Min Temp
(°C)
Avg Temp
(°C)
Rain (mm) Avg RH (%)
Fri, Dec 14, 2018 6.7 1.1 3.8 1.8 99.1
Thu, Dec 13, 2018 6.9 -3.1 0.9 0.2 99.1
Wed, Dec 12, 2018 1.6 -5.2 -0.6 0.2 98.5
Tue, Dec 11, 2018 0.2 -1.7 -0.9 0.0 99.0
Mon, Dec 10, 2018 1.2 -2.1 -0.6 0.0 99.5
Sun, Dec 09, 2018 1.4 -8.4 -2.4 0.0 93.8
Sat, Dec 08, 2018 -0.2 -5.7 -3.0 0.0 92.8
DateTime Avg Temp (°C) Rain (mm) RH (%)
Sat, Dec 15, 2018 17:00 3.2 0.0 99.9
Sat, Dec 15, 2018 16:00 3.5 0.0 99.9
Sat, Dec 15, 2018 15:00 3.9 0.0 99.9
Sat, Dec 15, 2018 14:00 4.2 0.0 99.9
Sat, Dec 15, 2018 13:00 4.3 0.0 99.9
Sat, Dec 15, 2018 12:00 3.9 0.0 99.9
Sat, Dec 15, 2018 11:00 3.2 0.0 99.9
Sat, Dec 15, 2018 10:00 2.5 0.0 99.9
Sat, Dec 15, 2018 09:00 1.8 0.0 99.9
Sat, Dec 15, 2018 08:00 1.4 0.0 99.9
Sat, Dec 15, 2018 07:00 1.6 0.0 99.9
Sat, Dec 15, 2018 06:00 0.4 0.0 99.9
Sat, Dec 15, 2018 05:00 -0.1 0.0 99.9
Sat, Dec 15, 2018 04:00 0.0 0.0 99.9
Sat, Dec 15, 2018 03:00 1.6 0.0 99.9
Sat, Dec 15, 2018 02:00 3.0 0.0 99.9
Sat, Dec 15, 2018 01:00 3.5 0.0 99.9
Sat, Dec 15, 2018 00:00 4.3 0.0 99.9
Fri, Dec 14, 2018 23:00 4.3 0.0 99.9
Fri, Dec 14, 2018 22:00 4.3 0.0 99.9
Fri, Dec 14, 2018 21:00 4.1 0.0 99.9
Fri, Dec 14, 2018 20:00 3.7 0.0 99.9
Fri, Dec 14, 2018 19:00 3.2 0.0 99.9
Fri, Dec 14, 2018 18:00 3.3 0.0 99.4
Fri, Dec 14, 2018 17:00 5.8 0.0 92.3
Fri, Dec 14, 2018 16:00 6.3 0.0 94.5
Fri, Dec 14, 2018 15:00 6.1 0.0 99.0
Fri, Dec 14, 2018 14:00 5.6 0.0 99.8
Fri, Dec 14, 2018 13:00 5.0 0.0 99.9
Fri, Dec 14, 2018 12:00 4.3 0.6 99.9
Fri, Dec 14, 2018 11:00 4.3 1.0 99.9
Fri, Dec 14, 2018 10:00 4.8 0.2 98.1
Fri, Dec 14, 2018 09:00 4.2 0.0 98.3
Fri, Dec 14, 2018 08:00 3.9 0.0 99.1
Fri, Dec 14, 2018 07:00 3.5 0.0 99.2
Fri, Dec 14, 2018 06:00 2.9 0.0 99.8
Fri, Dec 14, 2018 05:00 1.9 0.0 99.9
Fri, Dec 14, 2018 04:00 1.6 0.0 99.9
Fri, Dec 14, 2018 03:00 1.6 0.0 99.9
Fri, Dec 14, 2018 02:00 1.6 0.0 99.9
Fri, Dec 14, 2018 01:00 1.5 0.0 99.9
Fri, Dec 14, 2018 00:00 0.9 0.0 99.9
Thu, Dec 13, 2018 23:00 0.2 0.0 99.9
Thu, Dec 13, 2018 22:00 -0.5 0.0 99.9
Thu, Dec 13, 2018 21:00 1.0 0.0 99.9
Thu, Dec 13, 2018 20:00 1.5 0.0 99.9
Thu, Dec 13, 2018 19:00 1.3 0.0 99.9
Thu, Dec 13, 2018 18:00 0.8 0.0 99.9


asterix Register now to access more data! asterix